Wetterdaten Sommer 2017

Datum T max T min Regen
01.06.2017 27.5 °C 12.6 °C 0 mm
02.06.2017 27.2 °C 15.9 °C 0 mm
03.06.2017 28.6 °C 15.4 °C 0 mm
04.06.2017 19.8 °C 12 °C 18.4 mm
05.06.2017 19.3 °C 11 °C 0.2 mm
06.06.2017 20.1 °C 11.2 °C 1 mm
07.06.2017 18.3 °C 9.3 °C 1.6 mm
08.06.2017 25.2 °C 6.7 °C 0 mm
09.06.2017 25.6 °C 11.8 °C 0 mm
10.06.2017 24.4 °C 11.4 °C 0 mm
11.06.2017 30.9 °C 11.6 °C 0 mm
12.06.2017 25.5 °C 16.8 °C 0 mm
13.06.2017 24.9 °C 10.7 °C 0 mm
14.06.2017 28.1 °C 11.3 °C 0 mm
15.06.2017 30.3 °C 14.4 °C 0.2 mm
16.06.2017 22.8 °C 17.6 °C 0 mm
17.06.2017 22.3 °C 13.1 °C 0 mm
18.06.2017 27 °C 16.4 °C 0 mm
19.06.2017 31.8 °C 12.5 °C 0 mm
20.06.2017 33.1 °C 15.8 °C 0 mm
21.06.2017 31.9 °C 17.8 °C 0 mm
22.06.2017 33.2 °C 18.2 °C 0 mm
23.06.2017 28.8 °C 21.4 °C 0 mm
24.06.2017 27.4 °C 16.7 °C 0 mm
25.06.2017 26.2 °C 16.5 °C 0 mm
26.06.2017 30.7 °C 16.9 °C 0 mm
27.06.2017 26.6 °C 18.1 °C 17 mm
28.06.2017 26.4 °C 17.9 °C 11.6 mm
29.06.2017 23.9 °C 15.1 °C 20.6 mm
30.06.2017 24.5 °C 13.8 °C 0 mm
01.07.2017 20.4 °C 14.3 °C 1 mm
02.07.2017 20.8 °C 14.2 °C 2 mm
03.07.2017 24.7 °C 13.9 °C 0 mm
04.07.2017 27.4 °C 15.2 °C 0 mm
05.07.2017 30.4 °C 13.9 °C 0 mm
06.07.2017 33 °C 15.5 °C 0 mm
07.07.2017 31.1 °C 19.8 °C 0 mm
08.07.2017 31.4 °C 18.6 °C 0.4 mm
09.07.2017 28.3 °C 20.1 °C 1.4 mm
10.07.2017 24.3 °C 17.9 °C 15.2 mm
11.07.2017 22.4 °C 16.1 °C 7.2 mm
12.07.2017 23.2 °C 15.6 °C 0.2 mm
13.07.2017 23.9 °C 10.5 °C 0 mm
14.07.2017 22.8 °C 12.9 °C 0 mm
15.07.2017 20.8 °C 12.7 °C 1 mm
16.07.2017 24.7 °C 11.4 °C 0 mm
17.07.2017 29.1 °C 13.8 °C 0 mm
18.07.2017 30.7 °C 15.9 °C 0 mm
19.07.2017 32.9 °C 18.2 °C 8 mm
20.07.2017 24.5 °C 17.6 °C 14.6 mm
21.07.2017 29.1 °C 15.2 °C 7 mm
22.07.2017 28.1 °C 16.6 °C 5.2 mm
23.07.2017 22.1 °C 15.3 °C 1.8 mm
24.07.2017 18.8 °C 13.6 °C 0 mm
25.07.2017 14.8 °C 12.4 °C 9 mm
26.07.2017 19.3 °C 13.3 °C 12.4 mm
27.07.2017 21.6 °C 12.8 °C 3.2 mm
28.07.2017 23.9 °C 14.7 °C 0.6 mm
29.07.2017 28.6 °C 14 °C 0 mm
30.07.2017 28.8 °C 16.9 °C 0 mm
31.07.2017 27.8 °C 17.3 °C 5.4 mm
01.08.2017 29.4 °C 18.9 °C 5 mm
02.08.2017 28.1 °C 18.4 °C 4 mm
03.08.2017 29.1 °C 20.1 °C 0 mm
04.08.2017 26.2 °C 18.1 °C 0 mm
05.08.2017 26.8 °C 15.8 °C 0 mm
06.08.2017 23.7 °C 13.3 °C 0 mm
07.08.2017 25.9 °C 11.1 °C 0 mm
08.08.2017 23.1 °C 13.5 °C 0 mm
09.08.2017 22.8 °C 12.7 °C 7 mm
10.08.2017 15.6 °C 11.8 °C 8.6 mm
11.08.2017 15.3 °C 11.8 °C 7.6 mm
12.08.2017 18.7 °C 12.8 °C 4.4 mm
13.08.2017 22.8 °C 14.6 °C 0.6 mm
14.08.2017 26.8 °C 14.2 °C 0 mm
15.08.2017 28.9 °C 15.9 °C 15.8 mm
16.08.2017 25.2 °C 16.1 °C 7.2 mm
17.08.2017 26.9 °C 15.8 °C 0 mm
18.08.2017 28.3 °C 16.3 °C 8 mm
19.08.2017 20.4 °C 12.4 °C 1.6 mm
20.08.2017 20.4 °C 11.2 °C 0 mm
21.08.2017 21.6 °C 11.4 °C 0 mm
22.08.2017 23.4 °C 9.7 °C 0 mm
23.08.2017 27.1 °C 13.1 °C 0 mm
24.08.2017 26.1 °C 14.8 °C 0 mm
25.08.2017 28.9 °C 15.4 °C 0 mm
26.08.2017 29.3 °C 16.8 °C 0 mm
27.08.2017 26.6 °C 17 °C 0 mm
28.08.2017 27 °C 15.7 °C 0 mm
29.08.2017 29.1 °C 14.3 °C 0 mm
30.08.2017 31.5 °C 17.4 °C 4.8 mm
31.08.2017 20.3 °C 14.2 °C 8.6 mm
 Hinweis zur Datenqualität
∅ Temperatur

19.9 °C

Abweichung vom Mittel

+1.2 °C

Niederschlag

249.4 mm

Abweichung vom Mittel

112 %

33.2 °C

Lufttemperatur
22.06.2017

1027 hPa

Luftdruck
17.06.2017

32 km/h

Windböen
06.06.2017

249.4 mm

Niederschlag
 

6.7 °C

Lufttemperatur
08.06.2017

7.7 °C

Bodentemperatur 5cm
01.01.1970

997 hPa

Luftdruck
28.06.2017
 Hinweis zur Datenqualität